STARLINK-36905

operational
NORAD ID: 70113 Constellation: starlink
LEOCIRCULAR

STARLINK-36905について

説明を読み込み中...

リアルタイム位置

3D地球を読み込み中...

次回通過

高度履歴

Altitude vs Time

uPlot chart will show altitude changes over time

軌道要素

1 70113C 26050K 26073.73243056 .00571340 00000+0 74987-3 0 733
2 70113 53.1639 257.6158 0011291 268.2822 224.6900 16.05449441 11
Epoch: Mar 14, 2026 • Age: 47 hours

現在のステータス

高度 267.7 km
速度 7.75 km/s
衛星直下点 48.59°N, 150.33°W
打ち上げ日 Mar 14, 2026
運用期間 1 days
タイプ internet

大規模コンステレーション

Loading constellations...